Latest Weather Observations for Viewbank

IDV60901

Issued at 10:35 am EDT Friday 31 October 2014 (issued every 10 minutes, with the page automatically refreshed every 10 minutes)

About weather observations | Map of Melbourne area stations | Latest observations for Melbourne area | Other Formats
Station Details ID: 086068 Name: VIEWBANK Lat: -37.74 Lon: 145.10 Height: 66.1 m
Data from the previous 72 hours. | See also: Recent months at Viewbank
Date/Time
EDT
Tmp

°C
App
Tmp
°C
Dew
Point
°C
Rel
Hum
%
Delta-T

°C
Wind Press
QNH
hPa
Press
MSL
hPa
Rain
since
9 am
mm
Dir
 
Spd
km/h
Gust
km/h
Spd
kts
Gust
kts
31/10:30am 20.9 20.1 11.8 56 5.1 NE 7 9 4 5 1008.5 1008.5 0.0
31/10:00am 18.4 17.2 11.5 64 3.8 NE 9 11 5 6 1009.0 1009.0 0.0
31/09:30am 16.8 15.6 11.7 72 2.8 ENE 9 13 5 7 1009.3 1009.3 0.0
31/09:00am 13.5 12.2 11.2 86 1.2 E 9 13 5 7 1009.6 1009.6 0.0
31/08:30am 12.3 11.4 11.2 93 0.6 NE 7 9 4 5 1010.0 1010.0 0.0
31/08:00am 11.2 10.2 11.0 99 0.1 NE 7 11 4 6 1010.1 1010.1 0.0
31/07:30am 9.8 8.7 9.8 100 0.0 NE 6 9 3 5 1010.5 1010.5 0.0
31/07:00am 8.3 6.6 8.3 100 0.0 NE 7 7 4 4 1010.6 1010.6 0.0
31/06:30am 7.5 6.9 7.5 100 0.0 CALM 0 0 0 0 1010.9 1010.9 0.0
31/06:00am 8.0 7.2 8.0 100 0.0 NNE 2 6 1 3 1010.8 1010.8 0.0
31/05:30am 8.4 6.9 8.4 100 0.0 N 6 9 3 5 1010.5 1010.5 0.0
31/05:00am 8.6 7.5 8.6 100 0.0 NE 4 6 2 3 1010.7 1010.7 0.0
31/04:30am 8.8 7.8 8.8 100 0.0 NNE 4 7 2 4 1011.3 1011.3 0.0
31/04:00am 9.2 9.0 9.2 100 0.0 CALM 0 4 0 2 1011.2 1011.2 0.0
31/03:30am 9.4 9.3 9.3 99 0.0 CALM 0 0 0 0 1011.3 1011.3 0.0
31/03:00am 9.6 8.2 9.5 99 0.0 NE 7 9 4 5 1011.7 1011.7 0.0
31/02:30am 10.6 10.8 10.4 99 0.1 CALM 0 0 0 0 1012.1 1012.1 0.0
31/02:00am 11.0 11.2 10.5 97 0.3 CALM 0 0 0 0 1012.4 1012.3 0.0
31/01:30am 11.3 10.4 10.8 97 0.3 SW 6 7 3 4 1013.2 1013.1 0.0
31/01:00am 11.3 10.1 10.4 94 0.5 SW 7 9 4 5 1013.8 1013.7 0.0
31/12:30am 12.0 10.9 10.6 91 0.7 S 7 11 4 6 1013.7 1013.6 0.0
31/12:00am 12.3 10.8 10.7 90 0.8 SSW 9 13 5 7 1014.0 1013.9 0.0
 
Date/Time
EDT
Tmp

°C
App
Tmp
°C
Dew
Point
°C
Rel
Hum
%
Delta-T

°C
Wind Press
QNH
hPa
Press
MSL
hPa
Rain
since
9 am
mm
Dir
 
Spd
km/h
Gust
km/h
Spd
kts
Gust
kts
30/11:30pm 12.7 11.3 10.8 88 1.0 S 9 17 5 9 1014.0 1013.9 0.0
30/11:00pm 13.0 11.2 10.7 86 1.2 S 11 19 6 10 1013.8 1013.7 0.0
30/10:30pm 13.0 11.5 10.5 85 1.3 S 9 13 5 7 1014.0 1013.9 0.0
30/10:00pm 13.4 12.0 9.6 78 1.9 S 7 11 4 6 1013.7 1013.6 0.0
30/09:30pm 14.2 12.1 9.6 74 2.4 S 11 19 6 10 1013.5 1013.4 0.0
30/09:00pm 15.3 12.9 9.9 70 2.8 S 13 22 7 12 1013.2 1013.1 0.0
30/08:30pm 16.1 13.6 9.8 66 3.3 SW 13 20 7 11 1012.9 1012.8 0.0
30/08:00pm 17.1 15.0 8.3 56 4.5 SW 9 15 5 8 1012.8 1012.7 0.0
30/07:30pm 18.8 16.3 8.2 50 5.5 SSW 11 17 6 9 1012.6 1012.5 0.0
30/07:00pm 19.6 17.5 8.3 48 5.9 S 9 15 5 8 1012.6 1012.5 0.0
30/06:30pm 19.3 17.7 8.0 48 5.8 S 6 9 3 5 1012.5 1012.4 0.0
30/06:00pm 20.3 18.3 7.3 43 6.7 S 7 13 4 7 1012.6 1012.5 0.0
30/05:30pm 20.9 18.7 7.9 43 6.8 S 9 17 5 9 1012.6 1012.5 0.0
30/05:00pm 21.1 16.9 7.3 41 7.1 SSW 19 26 10 14 1012.5 1012.4 0.0
30/04:30pm 21.7 18.2 8.6 43 6.9 SSW 17 26 9 14 1012.5 1012.4 0.0
30/04:00pm 21.9 18.2 8.1 41 7.3 SSW 17 26 9 14 1012.3 1012.2 0.0
30/03:30pm 21.5 17.7 9.1 45 6.6 SSW 19 30 10 16 1012.3 1012.2 0.0
30/03:00pm 21.7 18.4 9.6 46 6.5 SSW 17 28 9 15 1012.6 1012.5 0.0
30/02:30pm 21.8 19.3 11.2 51 5.9 SSW 15 22 8 12 1012.9 1012.8 0.0
30/02:00pm 21.0 18.3 8.9 46 6.4 SSW 13 20 7 11 1013.3 1013.2 0.0
30/01:30pm 20.9 17.2 9.5 48 6.1 SW 19 24 10 13 1013.7 1013.6 0.0
30/01:00pm 20.6 18.7 8.9 47 6.2 WNW 9 17 5 9 1013.9 1013.8 0.0
30/12:30pm 19.4 17.4 8.7 50 5.6 SSE 9 17 5 9 1014.3 1014.2 0.0
30/12:00pm 19.2 16.9 9.1 52 5.3 SW 11 19 6 10 1014.7 1014.6 0.0
30/11:30am 18.2 16.3 9.0 55 4.8 SW 9 20 5 11 1015.2 1015.1 0.0
30/11:00am 17.5 15.0 9.7 60 4.1 W 13 22 7 12 1015.6 1015.5 0.0
30/10:30am 17.2 15.4 9.6 61 4.0 WSW 9 15 5 8 1015.9 1015.8 0.0
30/10:00am 16.3 14.0 9.0 62 3.8 W 11 19 6 10 1016.0 1015.9 0.0
30/09:30am 15.4 13.9 9.3 67 3.2 WSW 7 15 4 8 1015.8 1015.7 0.0
30/09:00am 14.4 13.6 9.6 73 2.5 SW 4 7 2 4 1016.0 1015.9 0.0
30/08:30am 13.6 13.3 11.5 87 1.1 E 4 7 2 4 1016.0 1015.9 0.0
30/08:00am 13.1 12.8 11.5 90 0.9 NNE 4 7 2 4 1015.7 1015.6 0.0
30/07:30am 12.5 13.1 12.0 97 0.3 CALM 0 0 0 0 1015.3 1015.2 0.0
30/07:00am 12.0 12.6 11.8 99 0.1 CALM 0 0 0 0 1015.0 1014.9 0.0
30/06:30am 11.9 11.7 11.7 99 0.1 ENE 4 6 2 3 1014.5 1014.4 0.0
30/06:00am 11.9 11.3 11.6 98 0.2 NE 6 7 3 4 1014.6 1014.5 0.0
30/05:30am 12.0 12.0 11.2 95 0.4 NE 2 6 1 3 1014.8 1014.7 0.0
30/05:00am 12.2 12.2 11.3 94 0.5 NE 2 7 1 4 1014.7 1014.6 0.0
30/04:30am 12.5 11.7 11.2 92 0.7 NE 6 9 3 5 1014.3 1014.2 0.0
30/04:00am 12.9 13.1 11.8 93 0.6 N 2 6 1 3 1014.4 1014.3 0.0
30/03:30am 13.0 13.6 11.9 93 0.6 CALM 0 0 0 0 1014.7 1014.6 0.0
30/03:00am 13.2 12.9 11.3 88 1.0 N 4 6 2 3 1014.8 1014.7 0.0
30/02:30am 12.8 13.2 11.4 91 0.7 CALM 0 0 0 0 1015.2 1015.1 0.0
30/02:00am 12.7 13.1 11.1 90 0.8 CALM 0 0 0 0 1015.5 1015.4 0.0
30/01:30am 12.6 13.1 11.5 93 0.6 CALM 0 0 0 0 1015.9 1015.8 0.0
30/01:00am 12.5 12.5 11.2 92 0.7 SW 2 6 1 3 1016.2 1016.1 0.0
30/12:30am 12.1 11.0 10.8 92 0.7 SW 7 9 4 5 1016.4 1016.3 0.0
30/12:00am 12.2 11.3 10.6 90 0.8 SW 6 7 3 4 1016.2 1016.1 0.0
 
Date/Time
EDT
Tmp

°C
App
Tmp
°C
Dew
Point
°C
Rel
Hum
%
Delta-T

°C
Wind Press
QNH
hPa
Press
MSL
hPa
Rain
since
9 am
mm
Dir
 
Spd
km/h
Gust
km/h
Spd
kts
Gust
kts
29/11:30pm 12.4 11.4 10.3 87 1.1 SSW 6 7 3 4 1016.3 1016.2 0.0
29/11:00pm 12.8 12.1 10.2 84 1.3 ESE 4 7 2 4 1016.5 1016.4 0.0
29/10:30pm 13.5 12.4 10.1 80 1.8 SE 6 9 3 5 1016.4 1016.3 0.0
29/10:00pm 13.9 13.2 9.9 77 2.1 SE 4 9 2 5 1016.6 1016.5 0.0
29/09:30pm 14.9 13.5 9.7 71 2.7 SE 7 11 4 6 1016.2 1016.1 0.0
29/09:00pm 15.8 13.1 9.0 64 3.5 SSW 13 22 7 12 1015.7 1015.6 0.0
29/08:30pm 16.2 13.1 8.9 62 3.8 SSW 15 22 8 12 1015.5 1015.4 0.0
29/08:00pm 16.4 13.7 8.9 61 3.9 S 13 20 7 11 1015.1 1015.0 0.0
29/07:30pm 17.3 13.3 8.4 56 4.6 SSW 19 28 10 15 1014.6 1014.5 0.0
29/07:00pm 21.1 18.6 8.4 44 6.7 SSW 11 19 6 10 1014.0 1013.9 0.0
29/06:30pm 21.5 19.1 8.7 44 6.8 SSW 11 17 6 9 1013.9 1013.8 0.0
29/06:00pm 22.5 19.7 8.6 41 7.4 WSW 13 20 7 11 1014.0 1013.9 0.0
29/05:30pm 22.3 19.0 8.1 40 7.5 SSW 15 22 8 12 1013.9 1013.8 0.0
29/05:00pm 23.3 20.0 8.2 38 8.0 W 15 22 8 12 1013.9 1013.8 0.0
29/04:30pm 22.1 20.0 8.2 41 7.3 WNW 9 17 5 9 1014.1 1014.0 0.0
29/04:00pm 21.5 20.0 8.4 43 6.9 WNW 6 11 3 6 1014.4 1014.3 0.0
29/03:30pm 21.8 19.4 8.7 43 7.0 N 11 20 6 11 1014.8 1014.7 0.0
29/03:00pm 21.4 18.9 8.3 43 6.9 W 11 20 6 11 1015.4 1015.3 0.0
29/02:30pm 20.7 18.9 8.0 44 6.6 NNE 7 15 4 8 1016.0 1015.9 0.0
29/02:00pm 19.1 16.7 7.2 46 6.0 NNE 9 17 5 9 1016.6 1016.5 0.0
29/01:30pm 19.0 16.5 8.1 49 5.6 WNW 11 19 6 10 1017.1 1017.0 0.0
29/01:00pm 17.8 15.1 7.2 50 5.3 NNW 11 20 6 11 1017.4 1017.4 0.0
29/12:30pm 16.8 13.9 6.6 51 5.0 W 11 19 6 10 1017.8 1017.8 0.0
29/12:00pm 16.2 13.3 6.3 52 4.8 NW 11 20 6 11 1018.3 1018.3 0.0
29/11:30am 15.6 13.5 6.6 55 4.4 W 7 15 4 8 1018.7 1018.7 0.0
29/11:00am 14.6 12.3 7.6 63 3.5 NNW 9 19 5 10 1019.0 1019.0 0.0
29/10:30am 14.2 12.0 7.7 65 3.2 SW 9 13 5 7 1019.1 1019.1 0.0
29/10:00am 13.6 11.1 6.7 63 3.3 WNW 9 15 5 8 1019.3 1019.3 0.0
29/09:30am 13.6 11.7 7.4 66 3.0 W 7 11 4 6 1019.2 1019.2 0.0
29/09:00am 13.2 11.5 8.5 73 2.3 W 7 13 4 7 1019.1 1019.1 0.8
29/08:30am 12.5 10.9 8.6 77 1.9 NW 7 13 4 7 1019.1 1019.1 0.8
29/08:00am 11.2 10.6 10.3 94 0.5 N 4 7 2 4 1019.0 1019.0 0.8
29/07:30am 10.2 10.3 10.0 99 0.1 CALM 0 7 0 4 1018.9 1018.9 0.8
29/07:00am 9.4 8.5 9.3 99 0.0 NE 4 7 2 4 1018.6 1018.6 0.8
29/06:30am 9.3 7.4 9.2 99 0.0 N 9 11 5 6 1018.4 1018.4 0.8
29/06:00am 9.0 7.6 8.9 99 0.0 N 6 6 3 3 1018.0 1018.0 0.8
29/05:30am 9.4 8.0 8.9 97 0.2 NW 6 7 3 4 1017.7 1017.7 0.8
29/05:00am 9.6 8.2 8.7 94 0.4 WNW 6 11 3 6 1017.5 1017.5 0.8
29/04:30am 10.3 8.7 8.9 91 0.7 NW 7 9 4 5 1017.3 1017.3 0.8
29/04:00am 11.0 9.5 8.6 85 1.2 WNW 6 9 3 5 1017.2 1017.1 0.8
29/03:30am 11.4 9.3 8.3 81 1.5 W 9 15 5 8 1017.3 1017.3 0.8
29/03:00am 11.8 8.0 7.5 75 2.1 W 17 28 9 15 1017.3 1017.3 0.8
29/02:30am 12.0 9.3 7.3 73 2.3 W 11 19 6 10 1017.1 1017.0 0.8
29/02:00am 12.4 9.8 6.2 66 2.9 WSW 9 15 5 8 1017.2 1017.1 0.8
29/01:30am 12.4 10.2 6.0 65 3.0 WSW 7 11 4 6 1017.4 1017.4 0.8
29/01:00am 12.4 10.2 6.2 66 2.9 SW 7 13 4 7 1017.7 1017.7 0.8
29/12:30am 12.7 8.8 5.4 61 3.4 WSW 15 24 8 13 1017.7 1017.7 0.8
29/12:00am 12.8 10.0 5.2 60 3.5 WSW 9 19 5 10 1017.7 1017.7 0.8
 
Date/Time
EDT
Tmp

°C
App
Tmp
°C
Dew
Point
°C
Rel
Hum
%
Delta-T

°C
Wind Press
QNH
hPa
Press
MSL
hPa
Rain
since
9 am
mm
Dir
 
Spd
km/h
Gust
km/h
Spd
kts
Gust
kts
28/11:30pm 12.9 9.1 5.8 62 3.3 SW 15 20 8 11 1017.6 1017.6 0.8
28/11:00pm 13.0 9.6 6.1 63 3.3 WSW 13 20 7 11 1017.7 1017.7 0.8
28/10:30pm 13.1 8.6 6.0 62 3.4 SW 19 33 10 18 1017.5 1017.5 0.8
28/10:00pm 13.6 9.1 6.0 60 3.6 WSW 19 37 10 20 1017.4 1017.4 0.8
28/09:30pm 14.1 10.4 6.2 59 3.8 SW 15 26 8 14 1017.2 1017.1 0.8
28/09:00pm 14.7 11.2 5.5 54 4.4 SW 13 30 7 16 1016.6 1016.5 0.8
28/08:30pm 14.9 11.6 6.2 56 4.2 SW 13 24 7 13 1016.2 1016.1 0.8
28/08:00pm 15.2 11.3 7.0 58 4.0 SW 17 28 9 15 1015.6 1015.5 0.8
28/07:30pm 15.8 11.5 7.0 56 4.3 WSW 19 35 10 19 1015.1 1015.0 0.8
28/07:00pm 16.4 12.2 7.6 56 4.4 WSW 19 32 10 17 1014.5 1014.4 0.8
28/06:30pm 17.6 11.3 7.6 52 5.1 WSW 30 43 16 23 1013.9 1013.8 0.8
28/06:01pm 17.2 11.1 6.7 50 5.2 W 28 46 15 25 1013.6 1013.5 0.8
28/06:00pm 17.3 11.2 6.8 50 5.2 W 28 41 15 22 1013.5 1013.4 0.8
28/05:30pm 16.7 12.3 7.6 55 4.6 SW 20 32 11 17 1013.4 1013.3 0.8
28/05:00pm 17.6 12.8 7.4 51 5.1 SSW 22 39 12 21 1012.9 1012.8 0.8
28/04:30pm 17.1 10.9 8.0 55 4.6 SSW 30 44 16 24 1012.9 1012.8 0.8
28/04:00pm 18.8 14.1 7.9 49 5.6 W 22 37 12 20 1012.9 1012.8 0.8
28/03:39pm 18.0 11.7 5.9 45 5.9 W 28 46 15 25 1012.8 1012.7 0.8
28/03:30pm 18.3 13.1 7.1 48 5.6 W 24 41 13 22 1012.8 1012.7 0.8
28/03:00pm 17.6 11.9 6.5 48 5.5 W 26 43 14 23 1013.0 1012.9 0.8
28/02:30pm 18.7 13.9 7.5 48 5.7 W 22 41 12 22 1012.7 1012.6 0.8
28/02:00pm 18.0 12.7 6.8 48 5.6 W 24 37 13 20 1012.6 1012.5 0.8
28/01:30pm 17.8 11.5 7.5 51 5.2 W 30 50 16 27 1012.5 1012.4 0.8
28/01:00pm 16.1 10.6 10.4 69 3.0 W 30 48 16 26 1012.5 1012.4 0.8
28/12:54pm 15.8 10.9 11.2 74 2.5 W 28 48 15 26 1012.3 1012.2 0.8
28/12:30pm 16.3 12.8 10.8 70 2.9 W 20 35 11 19 1012.3 1012.2 0.8
28/12:00pm 14.6 13.5 12.1 85 1.4 NW 9 15 5 8 1012.6 1012.5 0.6
28/11:30am 13.4 10.1 10.9 85 1.3 W 19 32 10 17 1012.9 1012.8 0.6
28/11:00am 14.4 10.5 9.4 72 2.6 WNW 20 33 11 18 1012.6 1012.5 0.0

Latest Capital City Observations: Canberra | Sydney | Melbourne | Brisbane | Adelaide | Perth | Hobart | Darwin

Other Formats:

Comma delimited format used in spreadsheet applications
http://www.bom.gov.au/fwo/IDV60901/IDV60901.95874.axf

JavaScript Object Notation format (JSON) in row-major order
http://www.bom.gov.au/fwo/IDV60901/IDV60901.95874.json